Vorticity
15 9 15 17 15 11 10 10 8 10 9 13 13 11 13 11 11 9 9 5 7 5 7 6 10 13 12 6 10 9 10 10 13 12 9 11 11 14 10 10 8 11 8 2 1
24 25 20 15 17 14 17 20 12 12 7 16 15 12 11 9 10 7 4 7 5 8 9 8 12 9 10 15 10 11 14 13 9 15 14 13 12 12 13 15 9 10 14 7 0
14 12 11 11 13 22 14 14 21 13 5 18 14 9 6 10 8 7 3 6 5 10 10 14 15 12 17 16 15 16 10 11 12 7 7 8 5 4 8 9 12 15 9 14 16
34 34 33 17 18 18 19 18 12 12 17 19 14 15 11 2 -2 1 4 6 7 6 15 13 17 15 15 5 10 2 17 13 4 7 6 7 6 7 7 11 10 6 9 11 9
31 13 12 22 35 22 16 14 16 16 13 13 18 5 10 8 10 11 8 8 6 10 13 19 10 10 13 10 6 13 11 32 41 29 23 26 25 15 22 9 5 11 11 9 12
30 41 20 22 17 12 12 19 18 14 19 14 12 12 4 20 4 5 6 10 15 17 16 13 9 15 2 17 13 15 -1 -2 7 12 18 26 21 60 40 54 44 21 22 15 5
31 29 58 7 19 16 11 22 20 43 6 23 13 11 12 3 5 -1 12 18 12 10 13 8 8 1 20 11 22 4 1 -1 1 -3 5 10 0 -1 4 9 1 27 52 73 40
13 22 22 29 27 16 15 17 20 9 11 15 11 6 6 7 8 5 17 13 8 12 12 7 8 20 4 7 19 5 -3 3 4 1 7 8 9 -4 7 17 10 -1 9 6 23
31 4 26 50 -18 8 16 18 13 19 11 20 6 4 4 -3 12 19 12 6 13 6 8 14 13 8 6 7 10 9 -3 7 5 -2 3 6 14 16 15 12 19 8 2 22 11
37 13 22 44 -9 24 16 19 18 17 21 6 1 1 4 20 20 5 12 10 12 16 17 14 9 5 5 4 8 6 2 8 4 0 -0 -1 1 -5 2 4 11 23 10 21 -6
28 33 37 13 -1 22 16 19 18 10 6 4 0 3 25 9 10 8 10 12 9 2 7 8 9 10 13 10 13 12 8 -3 15 10 3 -1 -2 7 -0 2 13 11 18 13 28
34 31 45 31 21 24 21 15 5 -3 -3 3 10 23 5 9 10 8 3 3 7 3 7 6 8 9 8 9 10 12 9 13 15 9 11 5 3 3 5 2 14 19 18 4 10
38 33 12 4 25 11 7 6 4 6 5 18 13 9 11 11 7 7 6 3 5 3 8 14 12 17 16 13 13 15 14 14 6 14 14 9 4 4 5 3 4 28 5 -5 20
21 23 19 6 11 8 11 3 -2 22 17 11 10 11 4 6 1 -1 1 5 8 10 18 26 38 36 30 26 23 14 17 14 15 13 16 11 9 0 6 9 12 13 -2 19 8
9 25 4 5 10 1 1 19 25 7 6 4 6 12 5 2 2 2 5 3 6 14 23 33 35 30 29 30 34 37 36 25 21 19 14 12 1 6 5 3 33 26 53 -25 -0
20 27 23 12 23 27 19 10 8 8 9 7 5 2 3 3 3 3 8 6 8 12 25 23 8 7 15 25 22 29 31 24 18 14 11 11 -1 5 11 -3 19 14 19 26 11
5 3 6 15 12 10 7 6 7 5 3 3 4 4 5 7 5 3 7 6 11 7 24 22 7 14 16 11 21 24 30 23 17 7 17 9 8 18 4 7 19 11 10 -7 7
5 8 7 1 3 6 4 5 4 4 5 6 6 5 5 5 2 3 5 4 5 8 8 31 10 7 13 20 37 27 27 12 0 11 15 7 14 8 7 11 -3 32 -18 -7 1
1 1 2 3 4 -1 1 4 6 3 7 5 5 5 6 6 9 9 7 9 4 5 15 19 24 12 -5 5 17 -15 4 19 21 14 5 11 9 15 12 -8 7 33 12 43 9
-0 2 3 3 3 4 3 4 2 4 4 3 5 5 4 5 7 7 6 6 6 1 6 7 13 28 31 19 4 5 -4 6 23 18 12 -1 4 -9 12 15 19 -18 -10 43 0
0 1 1 1 2 5 2 0 3 2 4 3 3 3 4 5 5 5 2 3 5 4 2 6 9 10 22 27 15 12 11 17 5 19 18 7 6 7 1 19 22 -7 13 -10 16
-1 -0 -1 1 5 1 1 3 5 2 4 7 5 3 4 3 3 3 6 1 2 4 6 3 2 5 12 10 30 33 24 11 7 12 9 5 17 30 10 5 2 14 -4 16 26
1 2 1 3 2 3 1 2 4 5 5 4 4 5 5 5 4 2 4 4 4 3 4 4 -0 -0 1 7 6 10 22 39 40 25 7 0 8 0 17 8 10 -2 12 -5 12
2 4 -1 2 1 0 1 2 2 5 5 6 6 6 6 5 5 4 4 5 5 4 3 3 3 5 6 4 9 4 9 7 13 31 39 51 23 3 7 12 9 11 9 14 -14
10 4 -2 1 0 3 2 3 2 3 4 6 5 7 9 6 6 6 5 7 4 4 2 4 2 3 3 4 5 9 8 9 9 8 8 13 37 61 40 11 6 12 3 8 13
4 23 8 5 8 2 -0 1 1 5 4 3 4 5 6 7 8 6 6 7 5 4 4 1 3 1 2 3 2 5 5 9 5 8 8 7 6 10 27 58 52 23 11 4 1
4 5 7 17 17 7 8 4 2 3 4 5 4 4 4 3 6 8 7 6 6 6 7 4 0 2 3 4 1 2 3 5 8 10 6 8 9 7 8 14 27 47 55 31 9
Height
5639 5634 5631 5631 5631 5634 5638 5643 5646 5651 5657 5663 5667 5672 5678 5682 5686 5690 5694 5697 5700 5702 5703 5704 5704 5705 5707 5708 5708 5707 5710 5713 5710 5710 5712 5711 5714 5718 5718 5724 5729 5735 5739 5748 5757
5605 5604 5604 5606 5609 5613 5620 5628 5633 5640 5646 5652 5658 5663 5670 5675 5680 5684 5688 5690 5692 5695 5695 5697 5697 5697 5699 5698 5700 5699 5701 5699 5699 5699 5701 5704 5707 5704 5707 5713 5722 5722 5723 5730 5740
5589 5585 5585 5587 5591 5594 5603 5613 5621 5629 5637 5644 5650 5657 5663 5670 5674 5678 5681 5684 5687 5688 5689 5689 5689 5690 5690 5690 5690 5692 5690 5691 5690 5689 5693 5696 5694 5694 5699 5706 5703 5702 5710 5714 5724
5567 5567 5568 5571 5577 5582 5588 5600 5610 5620 5629 5636 5644 5651 5657 5663 5671 5674 5678 5679 5681 5681 5681 5681 5682 5682 5682 5683 5682 5683 5680 5683 5681 5681 5682 5682 5689 5686 5683 5700 5680 5684 5696 5703 5709
5549 5552 5555 5559 5566 5573 5578 5592 5604 5614 5623 5631 5639 5646 5654 5661 5666 5670 5674 5675 5675 5674 5675 5676 5675 5675 5675 5675 5675 5675 5673 5675 5673 5671 5672 5674 5675 5672 5678 5661 5673 5678 5683 5689 5694
5540 5539 5544 5551 5557 5567 5574 5588 5599 5610 5619 5629 5637 5645 5653 5659 5664 5667 5669 5670 5670 5670 5670 5670 5669 5669 5669 5668 5669 5668 5669 5668 5669 5667 5666 5667 5665 5665 5659 5662 5664 5660 5664 5668 5673
5532 5531 5535 5545 5554 5562 5575 5587 5600 5605 5617 5628 5636 5644 5651 5657 5661 5664 5665 5665 5665 5666 5666 5665 5663 5663 5663 5662 5663 5662 5663 5663 5663 5663 5661 5662 5661 5658 5657 5657 5658 5656 5656 5655 5659
5530 5529 5531 5540 5549 5563 5576 5586 5597 5606 5618 5630 5636 5644 5651 5656 5660 5661 5662 5663 5664 5663 5662 5660 5658 5658 5658 5658 5657 5657 5658 5658 5658 5658 5657 5657 5655 5653 5653 5652 5651 5649 5646 5646 5645
5528 5529 5532 5538 5552 5566 5575 5586 5598 5612 5620 5633 5637 5646 5653 5656 5659 5660 5662 5663 5662 5660 5658 5656 5654 5654 5653 5652 5652 5651 5652 5652 5653 5653 5653 5653 5651 5650 5648 5645 5643 5640 5637 5638 5637
5529 5533 5535 5543 5560 5570 5579 5589 5604 5615 5628 5635 5642 5650 5654 5657 5660 5662 5662 5662 5660 5658 5655 5652 5650 5648 5647 5645 5645 5644 5644 5646 5646 5645 5648 5648 5649 5648 5643 5640 5637 5635 5633 5631 5631
5541 5542 5547 5555 5567 5578 5588 5600 5613 5624 5631 5640 5645 5652 5656 5661 5662 5663 5663 5662 5660 5656 5652 5649 5646 5641 5639 5636 5635 5634 5635 5635 5639 5638 5643 5643 5644 5643 5639 5635 5631 5629 5627 5624 5623
5556 5556 5561 5569 5579 5590 5600 5611 5620 5630 5636 5644 5650 5655 5660 5663 5664 5665 5665 5664 5660 5656 5651 5647 5640 5634 5629 5625 5624 5624 5625 5628 5632 5631 5635 5637 5639 5639 5634 5631 5626 5621 5622 5618 5617
5581 5580 5584 5593 5598 5605 5614 5623 5630 5638 5645 5651 5656 5661 5665 5667 5669 5669 5669 5666 5660 5654 5647 5640 5632 5623 5618 5614 5612 5613 5613 5619 5624 5625 5629 5634 5636 5633 5630 5625 5623 5619 5619 5615 5611
5609 5609 5610 5614 5621 5625 5631 5637 5643 5648 5654 5662 5665 5668 5670 5672 5673 5673 5670 5666 5659 5651 5640 5632 5621 5612 5606 5603 5601 5602 5602 5611 5615 5620 5625 5630 5632 5628 5630 5626 5622 5619 5617 5612 5610
5632 5632 5633 5635 5640 5644 5648 5651 5655 5661 5666 5671 5673 5676 5676 5678 5678 5676 5671 5665 5657 5648 5637 5627 5616 5608 5601 5597 5594 5594 5597 5604 5610 5616 5622 5625 5629 5625 5626 5626 5622 5618 5613 5611 5609
5649 5651 5654 5655 5657 5660 5663 5666 5670 5676 5677 5680 5682 5683 5683 5682 5680 5677 5672 5666 5658 5647 5636 5627 5619 5611 5605 5599 5595 5593 5595 5600 5607 5614 5619 5623 5624 5624 5626 5625 5622 5617 5613 5614 5612
5674 5670 5669 5674 5677 5678 5679 5681 5684 5686 5687 5690 5689 5688 5688 5686 5683 5679 5674 5667 5660 5652 5639 5629 5623 5614 5610 5605 5601 5598 5600 5604 5611 5615 5619 5622 5624 5624 5626 5626 5623 5621 5619 5616 5615
5692 5689 5688 5681 5685 5690 5692 5695 5696 5695 5695 5695 5695 5694 5692 5690 5687 5683 5678 5672 5664 5656 5646 5636 5627 5623 5618 5614 5609 5608 5609 5612 5615 5617 5622 5623 5626 5626 5626 5626 5625 5623 5622 5621 5622
5709 5707 5703 5700 5698 5694 5694 5701 5703 5701 5702 5702 5701 5699 5697 5695 5692 5688 5682 5677 5671 5662 5653 5644 5637 5632 5628 5624 5622 5620 5621 5622 5623 5624 5625 5627 5629 5628 5626 5627 5627 5626 5625 5624 5624
5725 5719 5717 5715 5711 5709 5708 5709 5705 5702 5702 5704 5705 5704 5702 5699 5697 5693 5688 5682 5677 5670 5662 5655 5646 5639 5635 5632 5630 5628 5628 5628 5627 5627 5629 5630 5630 5628 5628 5628 5629 5629 5628 5625 5626
5730 5732 5729 5725 5721 5720 5718 5717 5715 5713 5710 5707 5705 5704 5703 5702 5700 5697 5694 5688 5683 5678 5671 5665 5658 5652 5643 5638 5637 5635 5633 5631 5631 5631 5630 5631 5633 5631 5627 5628 5630 5630 5632 5631 5629
5735 5735 5735 5732 5729 5725 5725 5725 5723 5720 5718 5715 5713 5709 5706 5703 5702 5700 5698 5694 5689 5684 5679 5674 5667 5659 5654 5649 5644 5640 5638 5636 5635 5635 5634 5632 5634 5632 5631 5628 5629 5631 5633 5633 5634
5747 5742 5741 5737 5734 5733 5734 5731 5727 5726 5724 5721 5718 5716 5713 5710 5707 5703 5700 5698 5694 5690 5686 5681 5676 5671 5664 5660 5655 5649 5644 5640 5637 5636 5635 5635 5634 5632 5632 5631 5629 5631 5632 5635 5635
5752 5748 5740 5740 5739 5736 5735 5733 5732 5729 5725 5723 5722 5720 5717 5714 5711 5708 5704 5702 5699 5696 5693 5689 5683 5678 5674 5669 5664 5659 5654 5649 5645 5640 5637 5636 5634 5632 5630 5630 5629 5630 5631 5634 5636
5754 5752 5748 5743 5742 5740 5737 5735 5734 5731 5729 5729 5725 5722 5719 5717 5713 5711 5709 5706 5703 5700 5697 5694 5691 5686 5681 5677 5672 5668 5664 5659 5655 5649 5645 5640 5635 5632 5630 5629 5627 5627 5628 5630 5633
5751 5750 5746 5745 5740 5735 5735 5738 5734 5732 5728 5724 5723 5721 5719 5718 5716 5713 5710 5708 5706 5704 5701 5698 5696 5692 5688 5683 5679 5675 5670 5667 5662 5657 5652 5647 5641 5635 5632 5628 5627 5626 5627 5627 5630
5745 5745 5745 5742 5740 5740 5740 5735 5730 5729 5726 5725 5723 5721 5719 5717 5715 5713 5712 5709 5706 5705 5703 5701 5698 5695 5692 5688 5685 5682 5676 5673 5668 5664 5659 5655 5650 5644 5637 5632 5628 5626 5626 5626 5626